User: anonymous   Login
Location: Barrio Pajares
(40.5500°N, 4.1667°W)
Time: 06:11:17
(UTC+00:00)
Language:

Terra - Orbit

View from above orbital plane
View from above orbital plane
View from above satellite
View from above satellite

Ground track
Ground track

The orbit data is extracted from the following two-line orbital elements,

1 25994U 99068A   24164.91532044  .00000816  00000-0  18012-3 0  9996
2 25994  98.0481 228.5285 0002664  48.8927  55.4260 14.59807953302423
Epoch (UTC): 12 June 2024 21:58:03
Eccentricity: 0.0002664
inclination: 98.0481°
perigee height: 692 km
apogee height: 695 km
right ascension of ascending node: 228.5285°
argument of perigee: 48.8927°
revolutions per day: 14.59807953
mean anomaly at epoch: 55.4260°
orbit number at epoch: 30242

The dashed part of the orbit path shows where the satellite is in the earth's shadow,  

DLR